Home > Weather > Porto Velho > Past weeks

Flag for Brazil Weather for the Past 2 Weeks in Porto Velho, Rondônia, Brazil

Now
77 °F

Partly cloudy.


Feels Like: 78 °F
Forecast: 75 / 88 °F
Wind: 3 mph from Northwest

Location: Porto Velho Aeroporto

Current Time: Feb 8, 2016 at 4:27:13 AM

Latest Report: Feb 8, 2016 at 3:00 AM


Visibility: N/A

Pressure: 29.86 "Hg

Humidity: 89%

Dew point: 73 °F

Location of Porto VelhoLocation

Historic Weather in Porto Velho — Graph

°F

Porto Velho Temperature Yesterday

Maximum temperature yesterday: 91 °F (at 1:00 PM)
Minimum temperature yesterday: 75 °F (at 12:00 AM)
Average temperature yesterday: 82 °F

High & Low Weather Summary for the Past Weeks

 TemperatureHumidityPressure
High95 °F (Jan 24, 3:00 PM)100% (Jan 24, 12:00 PM)29.98 "Hg (Jan 24, 12:00 PM)
Low45 °F (Feb 1, 3:00 PM)49% (Jan 24, 4:00 PM)29.68 "Hg (Jan 24, 4:00 PM)
Average80 °F82%29.84 "Hg
* Reported Jan 24 3:00 AM — Feb 8 3:00 AM, Porto Velho, Weather by CustomWeather, © 2016

Note: Actual official high and low records may vary slightly from our data, if they occured in-between our weather recording intervals... More about our weather records

Advertising

Porto Velho Weather History for the Previous 24 Hours

 ConditionsComfort  
Time TempWeatherWind HumidityBarometerVisibility
3:00 AM
Mon, Feb 8
77 °FPassing clouds.3 mph89%29.86 "HgN/A
2:00 AM77 °FPartly cloudy.1 mph89%29.86 "HgN/A
1:00 AM77 °FPassing clouds.2 mph89%29.86 "HgN/A
12:00 AM77 °FPassing clouds.2 mph89%29.86 "HgN/A
11:00 PM
Sun, Feb 7
79 °FPassing clouds.2 mph89%29.86 "HgN/A
10:00 PM81 °FThundershowers. Passing clouds.No wind84%N/AN/A
9:00 PM81 °FPassing clouds.1 mph84%29.83 "HgN/A
8:00 PM81 °FPassing clouds.1 mph79%29.80 "HgN/A
7:00 PM88 °FPassing clouds.3 mph59%29.77 "HgN/A
6:00 PM91 °FScattered clouds.3 mph52%29.74 "HgN/A
5:00 PM91 °FScattered showers. Scattered clouds.5 mph52%29.74 "HgN/A
4:00 PM91 °FScattered showers. Scattered clouds.8 mph52%29.74 "HgN/A
3:00 PM91 °FScattered clouds.3 mph52%29.80 "HgN/A
2:00 PM91 °FBroken clouds.7 mph49%29.86 "HgN/A
1:00 PM91 °FBroken clouds.7 mph49%29.89 "HgN/A
12:00 PM88 °FBroken clouds.3 mph66%29.92 "HgN/A
11:00 AM86 °FBroken clouds.No wind70%29.95 "HgN/A
10:00 AM82 °FBroken clouds.6 mph74%29.95 "HgN/A
9:00 AM81 °FBroken clouds.3 mph84%29.95 "HgN/A
8:00 AM77 °FBroken clouds.1 mph94%29.92 "HgN/A
7:00 AM75 °FBroken clouds.No wind94%29.89 "HgN/A
6:00 AM75 °FPassing clouds.No wind94%29.89 "HgN/A
5:00 AM75 °FPassing clouds.No wind94%29.89 "Hg5 mi
4:00 AM75 °FPassing clouds.No wind94%29.89 "Hg5 mi
Weather by CustomWeather, © 2016

See weather overviewHow to use our weather pages